ラインムート第1彗星

30P/Reinmuth 1 (2024)

English version
Home page
Updated on May 27, 2025

---------------------------------------------------------------------

・ プロフィール

・ 写真集

・ 軌道要素

Epoch 2025 May 5.0 TT = JDT 2460800.5
T 2024 Aug. 17.22436 TT                                 Pike
q   1.8138464            (2000.0)            P               Q
n   0.13653302     Peri.    9.51011     -0.59678908     -0.79267060
a   3.7351748      Node   117.23369     +0.72667241     -0.59974893
e   0.5143878      Incl.    8.05325     +0.34027929     -0.10942822
P   7.22
From 1184 observations 2011 Apr. 12-2025 Feb. 26, mean residual 0".8.

・ 星図

・ 光度変化

        m1 = 10.0 + 5 logΔ + 13.0 log r  [ ,0]  (              〜2024年 8月17日)
        m1 =  7.7 + 5 logΔ + 22.0 log r  [0, ]  (2024年 8月17日〜              )

---------------------------------------------------------------------

軌道要素はM.P.E.C. 2025-D254に掲載されたものです。
星図はステラナビゲータ Ver.10 (アストロアーツ) で作成したものです。
光度グラフはComet for Windowsで作成したものです。

---------------------------------------------------------------------

Copyright(C) Seiichi Yoshida (comet@aerith.net). All rights reserved.